Temp
27 28 29 30 30 28 30 29 32 32 30 31 30 27 27 27 25 24 24 23 22 22 20 19 18 17 16 16 15 15 15 15 14 13 13 13 13 13 13 13 14 14 14 15
29 28 30 31 30 30 29 28 28 29 30 29 28 27 27 26 25 24 23 23 22 21 20 19 18 17 16 15 14 14 14 14 13 13 13 13 13 13 13 13 13 13 14 14
30 27 30 31 32 31 30 29 31 31 32 28 26 25 26 26 25 25 24 23 22 21 20 18 17 16 16 14 13 13 13 13 13 13 13 13 12 12 12 13 13 13 13 14
29 29 30 32 29 30 31 31 30 30 29 28 28 27 27 27 26 25 24 22 21 19 18 16 15 15 14 13 13 13 13 12 12 12 13 13 13 12 13 13 13 13 12 13
29 30 29 30 28 29 30 33 32 31 29 27 25 25 24 25 26 25 23 22 20 19 17 15 14 14 13 13 12 12 12 12 12 12 13 13 13 12 13 13 13 13 13 14
27 30 30 31 29 29 31 32 29 29 28 26 25 28 29 23 23 23 21 20 18 17 16 15 14 13 13 13 13 12 11 12 12 12 12 12 12 12 12 12 13 13 13 13
28 30 30 29 29 29 30 31 27 27 27 26 27 26 23 22 22 21 20 18 17 16 16 15 14 13 13 13 13 12 12 12 13 12 12 12 12 13 12 13 13 13 13 13
26 28 29 28 28 30 29 25 25 25 25 25 23 21 22 22 21 20 18 17 17 16 16 14 13 13 13 13 12 12 12 12 13 12 12 12 12 12 13 12 12 13 11 12
29 30 25 25 26 25 26 26 24 25 24 23 23 22 21 21 20 19 18 17 17 17 15 13 12 12 13 12 12 12 13 13 12 12 12 12 12 12 11 11 13 12 11 11
26 26 26 25 25 24 24 26 24 25 24 24 23 22 21 20 20 18 17 17 16 15 15 14 13 12 12 12 12 12 13 13 12 12 12 12 12 11 10 10 12 11 10 10
26 25 25 25 25 25 23 23 24 23 23 23 22 22 21 20 19 18 17 16 15 15 15 14 13 12 12 11 11 12 13 13 12 13 12 12 12 11 10 9 9 10 9 10
30 26 26 26 25 23 23 24 23 22 21 21 22 21 20 19 18 17 16 15 15 14 14 14 13 13 12 11 11 12 13 13 13 13 13 12 12 12 10 10 9 9 8 8
26 23 23 23 24 24 23 23 23 24 23 21 20 20 19 18 17 16 16 15 15 15 14 13 13 13 12 11 11 12 12 12 13 13 13 12 12 12 13 12 10 9 8 8
22 22 23 23 24 23 23 22 21 22 21 20 19 19 18 18 15 16 16 16 15 14 14 13 13 13 12 12 11 12 12 12 12 12 12 12 12 12 12 12 12 12 10 8
22 23 24 23 22 22 22 21 22 22 21 20 19 19 18 17 17 17 16 15 15 14 14 14 13 13 12 12 12 12 12 13 12 12 12 11 12 12 12 12 12 11 11 10
22 22 23 23 22 21 22 22 23 22 21 20 19 19 18 18 17 17 16 15 15 16 15 14 14 14 13 12 12 13 13 12 12 13 13 12 12 12 12 12 12 11 11 10
24 24 23 22 22 21 22 22 23 22 21 20 19 19 18 17 17 16 16 15 15 15 15 14 14 14 14 13 12 13 14 14 12 13 13 13 12 12 12 12 12 12 11 10
24 23 22 22 22 21 21 20 21 20 19 20 19 18 17 17 17 17 16 16 14 14 14 15 15 15 14 14 13 13 13 14 14 14 14 13 13 12 12 12 12 12 12 10
22 19 20 21 20 21 21 21 20 20 18 18 17 17 17 17 17 17 16 15 15 15 16 16 16 16 15 15 14 13 14 14 14 13 13 13 12 13 13 13 12 12 12 11
20 19 20 19 19 19 20 19 19 19 20 20 18 17 17 17 16 16 15 15 17 17 17 17 17 16 15 15 15 14 14 14 14 14 14 14 14 14 13 12 11 12 12 11
19 18 19 18 19 18 18 18 19 19 18 18 17 17 17 17 16 15 15 16 17 17 17 17 16 16 15 15 14 14 15 15 15 15 15 14 14 14 14 13 13 12 12 12
19 19 19 19 19 19 17 18 18 18 18 18 17 17 16 17 16 15 15 16 18 17 16 15 17 18 17 16 15 15 15 14 15 15 15 14 14 14 14 13 13 13 13 12
18 18 18 18 18 17 18 18 18 18 19 18 18 17 16 16 17 17 18 18 18 18 17 16 17 17 17 16 15 14 14 14 14 14 14 15 15 14 14 13 13 13 13 13
17 17 17 17 17 18 19 19 17 17 17 17 17 17 17 18 18 17 16 17 17 17 15 17 17 17 16 15 14 15 14 14 14 14 14 14 15 14 13 13 13 13 13 13
16 16 17 17 17 19 17 17 16 18 17 17 17 17 17 16 16 18 16 16 16 17 15 17 17 17 15 14 14 14 14 14 14 14 14 14 14 14 14 13 14 13 13 13
16 17 16 15 16 16 16 15 16 16 17 17 17 17 17 16 16 16 16 16 16 16 15 15 15 14 15 15 14 14 14 15 14 13 14 14 14 14 14 14 14 14 14 14
16 14 15 15 15 15 15 14 14 15 15 15 15 16 16 16 16 15 15 16 16 16 16 16 15 14 14 14 14 14 14 14 14 14 13 14 14 14 15 15 15 14 14 14
Height
785 782 778 777 779 787 786 789 787 780 787 772 769 775 776 783 792 800 805 810 814 817 823 825 827 828 830 830 828 827 827 826 825 822 820 817 815 813 811 808 807 804 801 799
783 781 775 777 777 778 783 786 788 785 781 767 766 771 778 783 790 797 802 806 811 815 820 824 826 829 830 829 828 827 826 825 825 824 822 819 816 813 810 807 803 800 798 795
787 786 778 784 768 772 771 773 771 779 763 766 772 774 774 779 785 790 798 805 812 817 820 822 827 829 829 829 827 827 827 826 824 822 820 818 815 811 809 805 802 799 796 794
784 783 801 762 760 760 763 761 761 762 764 765 764 765 767 773 781 788 795 804 812 817 821 824 826 828 828 828 827 827 825 823 822 820 818 815 813 810 808 804 801 798 795 792
784 785 781 767 765 766 765 756 749 754 760 766 770 771 774 773 777 784 791 800 808 815 821 825 826 826 825 826 826 826 826 823 821 818 815 814 811 809 806 803 800 796 793 789
787 785 792 761 757 753 750 769 752 753 758 765 770 773 762 772 778 785 794 800 808 813 820 824 825 825 825 825 826 826 824 821 817 814 812 810 810 808 804 801 796 793 790 787
780 779 770 755 755 753 776 772 755 753 756 762 766 765 768 773 780 787 794 801 808 813 818 820 821 822 823 822 821 820 819 817 814 812 810 809 808 807 802 798 794 791 788 785
783 782 784 752 758 762 754 756 756 758 760 765 769 771 773 777 783 789 796 803 808 813 816 817 818 820 820 820 819 819 818 816 812 810 809 808 807 803 799 795 792 790 786 784
763 759 757 755 753 751 751 753 757 758 762 765 769 774 778 783 788 794 798 803 808 811 814 816 817 818 819 819 819 818 816 813 811 809 808 806 803 799 796 795 793 791 787 784
764 758 755 753 751 752 752 751 755 757 761 764 769 776 782 787 791 796 800 804 807 810 813 814 816 817 818 817 817 815 813 811 809 808 806 804 801 799 797 795 794 791 789 786
759 756 755 752 751 751 754 755 758 763 766 768 772 778 782 788 793 797 800 804 807 809 811 813 814 815 815 814 814 813 811 810 808 807 805 803 801 799 797 795 793 791 790 788
752 749 751 748 748 752 754 757 760 764 771 774 775 779 784 789 793 797 800 803 806 808 810 811 811 812 813 812 811 811 810 809 807 805 804 802 800 797 795 794 793 792 791 788
748 751 751 751 752 754 756 760 763 766 770 774 779 781 785 789 793 797 800 802 804 806 807 809 809 810 810 810 810 809 808 807 805 804 802 800 798 797 795 794 793 793 791 789
749 750 753 752 753 756 759 762 766 770 773 776 778 783 786 789 794 796 798 800 802 804 805 806 806 807 807 807 807 807 806 805 804 803 801 800 799 799 797 795 793 792 791 788
749 749 748 749 754 758 761 765 768 772 775 778 781 783 786 789 792 794 797 799 800 801 802 802 803 803 803 804 804 805 805 804 803 802 802 801 800 799 798 796 794 791 789 787
750 750 750 752 756 760 763 766 768 772 775 778 780 783 785 788 791 793 794 795 797 797 798 799 799 800 800 801 802 802 802 801 801 801 801 801 800 799 797 795 793 791 789 788
750 752 753 756 758 760 762 765 766 769 774 776 778 781 784 786 789 790 791 792 793 795 795 796 796 797 798 798 799 799 799 799 799 800 799 798 798 797 795 794 792 791 789 788
750 751 752 753 756 759 762 765 767 769 771 772 775 778 782 783 782 784 786 789 790 791 791 790 792 793 794 794 795 796 796 796 796 796 795 795 794 794 794 793 791 790 788 787
754 754 754 755 758 759 762 765 767 769 772 772 774 776 777 778 779 781 784 785 785 786 783 785 786 788 789 789 791 792 792 792 791 791 790 790 791 791 790 789 788 787 786 784
759 761 760 760 759 762 762 764 766 767 767 767 768 770 772 772 772 775 778 778 777 777 778 780 781 782 783 784 784 786 786 786 786 786 786 785 785 785 785 784 783 783 782 781
764 765 763 764 764 763 763 763 763 764 765 765 766 766 768 769 769 770 772 772 767 769 771 773 774 775 777 777 777 778 779 780 780 780 780 780 779 779 779 779 778 778 777 776
766 765 766 766 766 765 765 764 763 763 763 763 763 764 765 763 765 765 763 764 761 762 763 763 764 765 766 768 770 770 770 771 772 773 773 773 773 773 773 773 773 773 772 771
769 768 768 767 767 766 765 764 764 763 762 762 762 761 761 759 758 759 756 753 754 754 755 755 754 755 756 758 760 761 761 761 763 764 765 766 767 767 768 768 768 768 767 766
770 768 769 768 767 765 764 763 763 761 760 759 758 757 756 755 753 752 750 748 748 747 747 747 747 747 749 749 750 751 751 752 754 755 756 758 760 761 761 762 762 762 761 760
771 769 768 768 766 764 763 762 760 758 756 755 753 752 751 750 749 747 745 743 741 741 740 739 739 738 739 739 740 741 742 743 744 747 748 750 751 753 754 755 755 755 754 754
771 769 768 768 767 765 763 762 759 756 755 752 750 748 746 745 743 741 739 737 735 734 732 731 730 729 729 729 731 733 734 735 735 736 738 740 742 745 746 747 747 747 747 747
773 772 772 771 769 767 765 762 759 755 753 751 747 744 742 740 738 736 733 731 729 727 725 724 722 720 720 721 722 723 724 725 726 726 728 731 734 735 737 739 739 740 740 740
Wind_Speed
2 1 2 2 6 10 5 2 5 4 5 5 10 16 18 16 15 16 15 14 12 11 10 9 8 5 3 0 3 5 5 6 8 9 9 11 12 13 12 11 11 12 14 14
4 2 5 4 5 10 7 4 10 8 9 5 4 10 14 17 18 17 16 16 13 12 12 9 7 6 4 1 2 2 3 3 6 9 9 10 10 11 10 11 12 13 14 14
5 1 4 5 12 11 5 5 5 6 1 4 5 14 17 18 19 20 18 15 12 11 11 9 8 5 3 2 0 1 2 4 6 7 9 11 11 10 10 12 13 13 13 14
4 5 6 2 2 4 10 7 12 6 3 5 5 10 13 15 17 17 15 14 12 12 10 10 8 5 3 1 1 2 4 6 7 7 9 10 11 12 11 12 12 12 15 16
4 6 2 2 4 5 7 5 11 13 7 6 5 7 5 11 15 16 15 18 17 14 12 9 6 4 2 1 1 2 4 5 5 6 8 9 11 12 12 12 12 12 13 15
3 4 7 1 3 3 4 4 1 6 10 12 11 7 4 13 14 14 19 20 19 16 13 9 6 4 1 1 2 3 5 6 7 7 7 9 10 11 12 11 11 12 13 14
4 4 3 3 3 7 5 2 3 4 8 12 7 2 6 13 13 19 21 20 17 15 11 8 4 2 1 2 4 5 7 7 7 8 8 8 10 9 10 11 11 12 12 13
3 3 5 5 5 4 3 3 2 5 6 9 5 10 12 13 16 18 19 18 15 12 8 6 3 1 1 1 3 4 4 5 6 7 6 7 8 9 9 12 12 13 15 13
4 1 2 1 2 2 1 3 5 9 10 10 12 11 13 13 13 16 17 15 12 9 7 5 4 3 2 2 3 3 3 5 7 7 6 6 8 9 8 11 11 12 13 14
2 4 3 3 2 2 3 4 8 11 12 12 13 13 11 12 11 13 14 13 10 8 6 5 6 5 3 3 3 3 4 6 7 8 9 8 9 6 6 8 10 11 13 14
3 3 4 4 4 4 6 9 12 11 10 10 14 12 12 11 11 12 12 10 9 7 6 6 6 5 3 2 2 3 4 5 6 6 8 8 7 6 3 7 9 11 12 12
1 1 2 0 8 8 12 14 13 13 9 9 9 12 12 9 12 12 12 11 9 7 7 6 6 5 4 1 1 3 3 3 5 6 7 7 8 7 6 6 7 11 11 13
0 2 1 2 6 8 11 12 9 10 11 11 10 13 14 13 12 11 10 9 9 9 8 7 7 5 4 3 1 1 2 4 5 5 7 9 9 8 8 6 7 7 10 10
4 5 3 7 5 9 10 11 11 10 9 9 11 11 11 11 11 10 10 10 9 9 9 8 6 5 5 5 3 1 1 4 5 6 6 7 8 7 6 7 7 6 6 9
5 3 3 8 10 10 13 13 11 9 9 9 12 13 12 11 11 12 10 9 9 9 9 8 8 7 6 7 7 5 4 3 3 5 5 5 5 4 5 5 6 7 7 8
3 6 7 8 10 11 11 11 11 9 8 9 10 11 12 10 9 10 11 10 10 9 10 11 11 8 7 8 8 8 7 7 6 4 3 3 3 3 4 5 7 7 7 8
1 3 3 4 8 11 13 10 9 10 10 11 12 12 12 11 10 11 12 12 13 11 9 10 11 8 9 9 10 9 9 8 9 8 6 4 4 3 3 4 5 7 7 6
1 3 3 2 7 9 9 10 11 10 12 15 13 13 13 14 16 15 16 14 12 12 14 16 14 13 13 12 11 10 10 10 9 10 9 8 6 6 6 5 5 6 6 6
15 9 9 6 2 4 7 9 11 8 3 5 9 12 14 16 16 16 12 13 14 14 19 16 17 16 16 17 15 12 11 11 11 10 10 11 10 9 8 8 8 8 7 6
14 15 15 14 12 4 2 1 6 11 14 13 12 9 12 17 17 15 14 18 20 21 17 12 14 14 17 17 19 15 13 12 12 12 11 11 12 12 11 11 11 11 10 9
8 10 13 11 8 9 7 4 4 7 6 6 10 10 11 15 10 11 14 15 24 25 26 23 21 17 16 17 17 19 17 15 14 13 12 12 12 12 12 12 11 12 12 12
8 8 8 9 9 8 9 7 4 3 3 3 3 6 9 12 12 13 14 18 20 15 16 17 25 27 24 24 19 19 26 20 17 15 13 13 14 13 12 11 12 12 12 12
6 5 7 8 7 7 8 6 5 6 6 6 7 8 10 14 13 11 11 15 16 19 21 22 21 22 23 24 19 20 23 26 25 21 18 15 14 14 13 11 11 12 12 13
8 7 6 6 7 8 8 8 8 9 9 10 10 10 10 11 11 10 13 16 19 21 20 23 22 27 26 22 19 22 21 21 22 24 21 20 17 15 14 14 14 14 13 14
6 6 6 8 9 9 10 11 12 13 12 12 12 13 12 12 12 16 13 14 16 16 16 20 24 25 22 25 25 20 21 20 21 22 23 23 21 18 18 16 16 16 14 14
6 7 8 7 7 10 11 11 11 13 12 13 13 12 12 11 13 16 17 18 17 18 17 17 18 18 19 22 22 19 21 21 21 23 24 24 26 19 20 19 17 16 14 14
8 14 12 9 10 12 12 12 12 14 12 12 15 15 13 13 14 15 17 18 18 18 19 19 17 18 22 19 18 21 21 21 22 22 23 27 28 22 20 20 18 17 16 15
Wind_Direction
93 187 194 173 190 177 207 167 267 358 225 300 223 197 189 181 172 173 174 175 175 171 170 161 153 151 167 67 5 1 356 357 351 346 344 343 341 335 328 326 315 308 307 305
152 161 182 166 167 185 218 226 257 260 268 250 286 185 185 182 179 183 187 183 180 171 173 167 163 181 190 220 2 26 1 357 345 336 336 336 336 335 333 331 329 324 320 313
186 203 188 209 206 193 198 198 227 243 339 182 182 191 188 190 190 186 186 184 178 175 171 157 175 184 215 246 155 11 342 335 337 339 338 341 339 339 337 336 332 327 327 321
131 184 201 67 17 252 228 241 218 254 210 204 256 209 191 197 195 188 179 170 166 162 155 159 168 182 198 227 312 338 355 346 343 345 347 345 345 341 334 331 327 324 326 326
161 210 331 243 185 175 194 224 223 235 184 160 138 150 193 197 197 188 174 163 157 157 156 161 167 173 153 83 337 331 338 342 341 349 357 349 345 343 342 337 333 330 330 331
161 208 237 207 147 202 201 254 19 217 186 161 163 196 193 169 164 156 155 147 149 150 154 164 170 156 131 190 267 306 336 338 350 356 351 346 338 332 331 331 327 330 327 331
170 217 257 251 226 176 197 21 50 198 182 176 192 2 118 143 142 146 143 142 145 148 159 161 141 82 352 342 352 343 334 341 350 351 343 338 330 331 333 342 349 352 351 359
152 187 220 167 151 212 70 96 122 134 163 156 111 119 134 136 137 139 139 141 146 151 155 144 143 158 312 326 343 330 328 342 351 347 346 336 333 347 8 12 11 7 7 8
227 207 26 258 287 7 212 139 155 144 147 142 133 135 138 139 140 143 147 148 156 158 150 166 185 200 230 250 281 299 332 356 359 355 353 357 0 3 9 10 4 0 2 0
219 176 248 280 231 200 190 132 140 142 145 148 142 146 143 145 146 150 154 155 158 159 178 188 198 197 226 272 272 311 336 350 356 0 358 357 4 10 19 21 4 2 0 354
249 258 272 233 223 152 129 127 130 130 140 142 144 155 156 157 159 161 158 159 170 181 190 194 191 206 226 308 292 323 339 342 342 346 357 353 352 356 339 29 29 13 1 351
312 350 324 140 161 149 147 145 143 133 130 141 154 155 158 157 162 163 169 174 182 192 198 195 198 212 226 258 306 330 325 335 358 356 0 357 359 2 8 355 8 18 13 8
311 15 74 48 134 150 137 140 145 143 148 151 146 148 156 153 164 169 176 188 200 207 208 206 212 224 222 226 232 278 1 4 356 356 357 6 0 356 347 346 343 343 359 12
209 156 130 180 172 159 142 134 124 119 130 140 141 143 147 152 161 180 197 209 212 213 217 217 227 239 218 213 207 212 13 10 12 6 2 359 354 347 333 340 340 347 346 3
140 279 303 132 137 140 138 138 140 143 143 145 154 157 163 166 181 197 203 203 207 216 226 227 237 245 230 221 230 247 265 299 340 356 356 348 347 345 349 352 349 347 347 357
92 103 121 134 146 149 153 161 159 160 164 163 166 175 184 189 191 195 198 199 199 223 232 231 236 238 234 227 235 247 255 263 275 294 321 317 335 348 1 3 0 359 357 355
86 95 109 130 165 175 188 183 177 174 178 184 189 187 191 198 204 207 210 216 222 232 232 233 242 239 240 240 235 249 253 257 257 262 260 263 272 288 317 336 352 359 359 347
26 44 120 122 191 190 198 198 199 186 199 203 191 188 195 203 218 219 219 217 224 238 241 244 246 241 241 244 238 246 253 256 257 261 257 247 255 265 275 293 308 329 344 339
51 44 35 36 29 209 221 220 223 228 207 186 186 207 214 224 235 240 227 219 228 237 251 242 247 246 246 246 243 242 251 253 257 262 257 249 249 254 260 271 283 290 298 309
48 44 55 51 39 10 248 221 203 224 241 226 218 216 230 243 242 238 230 230 232 236 247 239 244 243 248 245 246 238 246 249 251 260 257 249 251 258 261 265 272 277 278 278
81 65 49 43 39 43 38 1 282 278 292 284 250 257 269 278 259 240 230 236 251 249 251 252 248 246 248 248 242 235 238 244 245 251 258 255 256 257 265 266 267 272 273 270
61 56 45 31 27 27 18 9 9 9 353 350 314 277 273 275 271 252 239 247 269 258 250 250 260 260 255 253 246 242 245 237 242 246 248 250 252 257 263 262 262 270 275 273
0 20 15 15 3 344 338 346 349 352 342 346 318 301 278 286 280 265 274 281 281 281 267 264 267 277 270 261 245 244 246 241 235 236 237 244 248 248 251 256 262 268 273 277
330 352 333 326 326 321 317 323 315 304 298 301 297 295 287 294 297 285 274 285 282 282 269 272 278 283 278 267 241 238 239 239 239 236 232 238 241 242 244 252 259 265 268 274
350 342 339 341 324 320 324 320 307 295 289 283 283 288 278 265 259 285 281 279 281 280 276 279 276 273 266 255 249 236 238 238 239 236 233 230 237 238 244 247 255 264 268 268
344 354 359 2 2 356 347 332 309 306 303 294 293 289 292 286 277 277 277 274 271 272 271 273 271 272 255 247 244 246 247 244 238 237 235 234 237 238 242 246 252 259 266 265
27 23 7 4 5 357 352 345 342 332 329 311 298 301 300 303 297 287 278 274 272 270 270 270 266 267 262 243 243 253 252 244 239 240 246 243 236 235 240 243 245 252 260 265